Location: Eaton Estates
(41.3089°N, 82.0057°W)
Time: 12:01:25
(UTC+00:00)

Cosmos 2123 Rocket - Pass Details

Date: 23 October 2021
Orbit: 961 x 992 km, 82.9° (Epoch: 29 November)

Event Time Altitude Azimuth Distance (km) Brightness Sun altitude
Rises 00:02:19 0° 350° (N) 3,715 7.2 -16.8°
Reaches altitude 10° 00:04:52 10° 349° (NNW) 2,761 6.5 -17.3°
Maximum altitude 00:11:10 72° 266° (W) 1,035 4.3 -18.5°
Drops below altitude 10° 00:17:23 10° 183° (S) 2,727 6.3 -19.7°
Sets 00:19:53 0° 181° (S) 3,666 7.0 -20.1°
